Regional Weather Roundup
Issued by NWS

Home | Current Version | Previous Version | Text Only | Print | Product List | Glossary Off
Versions: 1 2 3 4 5 6 7 8 9 10 11 12 13 14 15 16 17 18 19 20 21 22 23 24 25 26 27 28 29 30 31 32 33 34 35 36 37 38 39 40 41 42 43 44 45 46 47 48 49 50

000
ASUS45 KCYS 241210
RWRWY

WYOMING REGIONAL WEATHER ROUNDUP
NATIONAL WEATHER SERVICE CHEYENNE WY
600 AM MDT THU JUL 24 2014

NOTE:  "FAIR" INDICATES FEW OR NO CLOUDS BELOW 12,000 FEET
WITH NO SIGNIFICANT WEATHER AND/OR OBSTRUCTIONS TO VISIBILITY.

WYZ001-241300-
YELLOWSTONE NATIONAL PARK

CITY           SKY/WX    TMP DP  RH WIND       PRES   REMARKS
LK YELLOWSTONE   N/A     42  38  85 CALM      30.26S
6HR MIN TEMP:  42; 6HR MAX TEMP:  50;

W YELLOWSTONE  NOT AVBL

$$
WYZ002>013-054>058-071-098>099-241300-
NORTHERN WYOMING

CITY           SKY/WX    TMP DP  RH WIND       PRES   REMARKS
JACKSON        PTCLDY    48  41  76 N5        30.16R
CODY           NOT AVBL
GREYBULL       PTCLDY    67  44  43 CALM      29.87S
6HR MIN TEMP:  66; 6HR MAX TEMP:  78;

WORLAND        PTCLDY    75  38  26 SE8       29.90F
6HR MIN TEMP:  71; 6HR MAX TEMP:  83;

SHERIDAN       PTCLDY    61  54  77 E7        29.84S
6HR MIN TEMP:  59; 6HR MAX TEMP:  73;

BUFFALO        MOCLDY    87  33  14 SW10G25   29.93S
6HR MIN TEMP:  70; 6HR MAX TEMP:  88;

GILLETTE       MOCLDY    77  42  28 SW16      29.90F
6HR MIN TEMP:  65; 6HR MAX TEMP:  80;

HULETT         FAIR      77  59  53 MISG      29.91
NEWCASTLE      FAIR      73  54  49 SE7       29.97

$$
WYZ014>020-022>026-101>103-241300-
CENTRAL WYOMING

CITY           SKY/WX    TMP DP  RH WIND       PRES   REMARKS
BIG PINEY      CLEAR     50  47  89 E7        30.22S
6HR MIN TEMP:  49; 6HR MAX TEMP:  67; 6HR PCP: TRACE;

PINEDALE       SUNNY     48  46  93 CALM      30.23F
DUBOIS         FAIR      55  36  47 W13       30.18S
LANDER         CLEAR     74  40  29 S15       30.05S
6HR MIN TEMP:  73; 6HR MAX TEMP:  84;

RIVERTON       PTCLDY    75  39  27 S13       30.05S
6HR MIN TEMP:  74; 6HR MAX TEMP:  82;

CASPER         MOCLDY    72  39  30 SW13      30.06F
6HR MIN TEMP:  70; 6HR MAX TEMP:  82;

DOUGLAS        MOCLDY    66  46  48 N6        30.05R
6HR MIN TEMP:  61; 6HR MAX TEMP:  73;


$$
WYZ021-027>030-104>119-241300-
SOUTHERN WYOMING

CITY           SKY/WX    TMP DP  RH WIND       PRES   REMARKS
EVANSTON       PTCLDY    67  41  38 SW16      30.23R
6HR MIN TEMP:  61; 6HR MAX TEMP:  69;

KEMMERER       MOSUNNY   63  37  39 W3        30.23S
FORT BRIDGER   FAIR      76  35  22 SW21G28   30.24R
ROCK SPRINGS   PTCLDY    68  35  29 W7        30.20F
6HR MIN TEMP:  63; 6HR MAX TEMP:  75;

DIXON          FAIR      65  40  39 NE7       30.26F
RAWLINS        MOCLDY    72  38  29 SW13      30.23F
6HR MIN TEMP:  67; 6HR MAX TEMP:  75;

SARATOGA       FAIR      64  41  42 SE12      30.28F
LARAMIE        MOCLDY    62  42  47 SW10      30.28F
6HR MIN TEMP:  60; 6HR MAX TEMP:  78;

CHEYENNE       CLOUDY    64  49  57 MISG      30.16F
6HR MIN TEMP:  61; 6HR MAX TEMP:  70;

TORRINGTON     PTCLDY    63  57  81 E6        29.99F
6HR MIN TEMP:  62; 6HR MAX TEMP:  74;

PINE BLUFFS    FAIR      59  52  77 S6        30.11S

$$



USA.gov is the U.S. government's official web portal to all federal, state and local government web resources and services.